Theta_e
336 337 335 335 333 332 335 332 335 336 331 333 334 333 333 334 333 333 331 332 331 331 329 327 328 329 329 330 331 329 328 323 316 318 321 322 322 323 324 325 325 324 321
334 335 333 334 334 335 334 331 335 331 335 331 330 330 333 333 334 332 330 331 328 326 328 327 326 328 327 328 329 327 323 322 319 315 318 319 319 322 323 322 323 325 322
332 332 333 333 336 336 334 332 332 332 333 331 328 331 332 332 333 331 331 331 327 327 324 325 325 326 328 329 327 325 323 322 321 318 317 320 320 322 322 322 321 321 324
331 330 332 334 335 335 332 333 334 333 332 329 331 332 332 333 332 331 332 331 328 326 326 327 326 327 328 326 325 323 322 320 320 318 318 317 318 321 321 319 319 321 321
330 332 333 334 335 333 331 334 332 333 330 330 330 331 332 332 326 329 331 331 329 326 328 328 324 325 324 323 324 321 320 319 318 319 318 318 317 317 316 318 317 319 318
331 331 331 332 332 331 332 334 333 331 331 330 329 331 331 325 308 312 322 330 331 329 326 327 322 320 318 315 315 316 320 320 320 319 318 316 316 316 316 315 316 315 314
330 330 331 331 330 331 331 330 331 331 332 331 331 331 329 324 304 304 308 333 331 331 328 329 327 324 323 322 311 312 312 312 316 321 318 317 315 315 317 315 312 313 314
329 327 328 328 328 330 330 331 333 333 333 333 332 333 329 320 307 303 305 332 332 330 331 330 329 327 324 325 324 322 322 322 322 323 321 319 318 317 318 316 317 321 321
328 329 328 328 329 328 329 330 333 334 333 333 334 332 328 325 306 302 317 331 331 331 331 331 329 326 308 309 324 321 321 320 311 310 309 307 304 306 314 322 320 319 316
328 328 329 330 330 330 333 334 335 335 335 333 331 333 320 326 304 302 317 331 329 329 328 322 311 320 307 309 323 321 319 320 322 321 317 311 308 311 307 321 324 319 318
329 330 331 332 335 336 336 336 336 330 332 333 331 332 331 327 318 304 307 332 330 328 327 325 316 304 302 307 312 323 320 322 316 322 322 324 321 319 319 323 327 324 319
330 330 332 334 331 333 336 337 335 332 331 331 330 329 330 329 313 305 303 309 315 328 326 324 311 302 304 306 315 303 304 315 324 324 323 323 323 325 327 327 328 326 328
330 332 332 333 334 334 333 334 331 334 331 330 329 327 327 327 325 304 305 311 311 327 328 309 297 298 301 306 302 303 305 325 325 324 323 324 326 324 323 328 328 327 325
330 333 333 332 333 334 331 330 328 330 328 330 328 328 327 326 326 328 323 321 311 316 309 313 311 310 310 312 311 310 326 328 326 325 326 327 326 322 327 330 323 322 316
330 332 333 332 334 333 333 328 329 329 324 328 329 329 328 326 326 320 322 329 327 320 322 323 324 320 321 323 325 326 327 328 324 326 323 323 324 327 327 328 323 318 312
328 329 329 330 330 331 329 325 298 303 301 299 299 322 327 314 304 306 306 305 304 305 324 324 324 324 320 320 320 321 324 322 326 324 325 324 324 325 324 323 320 316 313
327 328 327 324 328 329 328 328 325 312 300 299 301 306 309 310 303 303 300 299 301 306 326 325 325 325 324 322 322 322 322 322 324 325 324 322 321 321 313 319 319 317 314
329 312 327 325 327 327 329 328 328 325 323 322 305 309 303 300 299 298 297 305 317 314 326 326 325 326 326 325 324 324 323 324 323 323 325 324 321 320 318 318 317 315 314
328 326 326 326 325 322 326 329 328 327 326 325 317 308 298 295 295 296 298 326 324 324 324 325 327 326 326 326 326 325 324 323 322 321 322 323 323 320 318 318 317 306 308
329 314 317 326 323 324 322 324 325 327 327 325 323 320 313 309 317 319 319 325 322 321 321 321 322 323 324 324 323 323 323 319 321 323 321 322 323 322 320 319 318 315 313
327 326 314 324 325 322 322 321 322 323 325 326 325 321 304 317 318 319 320 321 321 321 320 320 319 319 320 323 322 321 319 319 319 319 321 322 322 321 321 320 319 317 315
326 326 324 323 323 323 322 322 323 323 322 322 323 318 297 319 321 320 320 320 321 323 323 324 323 322 321 321 322 323 322 321 321 320 318 318 320 320 320 319 318 317 314
327 327 326 324 324 316 321 322 321 322 322 322 323 319 315 320 322 322 322 323 322 321 322 322 322 323 324 324 323 323 322 322 322 323 321 320 319 318 318 318 317 316 311
328 328 328 325 324 324 324 322 322 312 321 321 322 322 320 322 324 323 323 324 326 325 324 323 323 323 324 325 325 324 323 322 321 322 323 321 320 314 318 317 317 316 310
330 329 329 329 326 324 324 325 323 323 321 321 322 322 324 324 325 325 326 324 325 325 327 325 325 324 324 325 325 325 314 295 316 309 320 319 319 319 318 317 316 312 300
330 330 330 329 331 327 325 325 326 324 324 322 322 324 323 324 325 325 325 325 324 324 327 327 328 327 327 325 325 312 296 293 300 294 318 319 318 315 314 315 312 303 299
Wind_Speed
9 6 10 6 6 5 4 6 4 2 4 4 5 4 4 1 4 3 2 0 1 2 3 1 2 2 0 1 4 4 7 9 11 5 7 7 12 14 13 16 14 12 10
9 10 7 6 6 5 4 6 5 4 4 4 5 5 5 5 3 4 2 2 3 4 4 2 1 3 3 5 4 8 10 10 13 15 10 8 10 13 13 15 10 9 11
9 11 7 6 6 5 5 5 7 5 4 5 4 7 5 5 3 4 1 2 5 4 2 4 3 1 6 6 7 10 9 9 11 13 10 9 10 9 12 11 10 9 8
10 11 7 7 6 5 7 4 4 6 5 3 6 4 5 5 1 2 2 2 6 4 3 5 4 2 11 9 9 11 11 11 12 12 12 11 11 4 9 11 10 8 8
9 11 9 6 7 7 6 7 5 4 4 3 5 4 6 6 6 7 6 4 6 5 4 4 5 3 12 9 8 10 13 11 12 8 11 10 9 8 9 6 10 7 4
13 11 9 7 10 7 5 5 5 4 6 5 4 4 8 6 7 10 7 3 7 8 6 6 7 12 13 15 16 12 10 16 12 9 11 11 9 11 10 10 10 8 6
10 9 9 8 10 8 7 6 5 3 3 4 4 8 8 6 8 8 9 4 6 7 5 8 10 9 13 13 16 16 15 14 11 14 14 12 13 12 12 9 8 4 5
10 10 10 10 9 8 7 6 6 4 3 5 4 6 9 5 6 9 10 5 7 8 5 9 11 13 12 14 14 13 11 10 10 8 13 11 12 10 11 10 9 6 6
11 11 11 10 9 7 7 7 6 4 5 6 5 6 10 4 4 8 6 5 7 7 8 10 11 12 13 15 15 14 12 9 9 12 11 11 11 11 9 7 4 8 6
11 11 11 11 9 8 7 7 5 4 4 5 5 5 11 6 5 6 4 5 7 7 7 8 12 11 15 14 14 15 14 11 12 11 6 6 7 10 9 3 5 6 6
11 12 11 11 9 8 7 6 4 7 6 6 8 6 9 7 4 5 6 6 7 8 8 8 5 9 10 14 12 11 14 13 10 11 8 6 6 7 6 6 4 4 8
11 12 12 10 10 8 6 4 6 8 7 7 8 7 7 7 5 5 8 6 3 9 9 7 5 9 12 12 9 14 16 14 9 8 7 6 6 8 7 6 6 4 3
11 10 12 10 10 11 7 5 5 6 6 6 5 7 7 6 4 7 6 5 6 8 8 10 10 10 12 7 14 18 15 10 9 8 8 7 7 5 4 5 4 6 4
10 10 12 10 10 11 8 5 6 5 6 8 6 5 8 7 6 5 4 6 11 9 10 7 5 7 5 8 7 8 9 8 9 9 9 8 6 5 4 7 5 4 4
10 10 10 8 6 8 5 4 4 3 4 7 8 9 8 8 8 9 8 6 8 9 8 4 3 6 6 5 6 8 7 6 8 7 6 7 8 7 5 4 5 4 4
11 9 9 8 7 8 7 5 12 9 9 13 7 9 6 12 18 15 11 8 14 17 7 5 5 7 8 7 7 8 8 7 5 4 6 7 6 6 5 5 4 5 5
11 10 9 8 10 8 8 8 6 4 8 10 12 12 14 16 18 15 11 11 15 11 6 5 4 5 7 9 8 5 4 4 3 5 6 6 6 7 7 8 8 6 5
12 13 9 9 9 9 9 8 9 8 6 4 6 5 13 16 16 15 14 11 4 2 6 8 8 8 6 6 7 5 6 5 5 4 4 6 6 5 4 7 7 6 6
12 9 10 10 8 11 8 9 9 11 10 8 7 5 6 10 8 6 13 8 8 8 8 8 6 6 6 5 5 7 6 7 8 7 5 5 6 6 5 7 6 10 9
12 14 12 8 10 8 9 10 9 9 11 11 11 9 8 7 7 8 8 8 8 8 8 9 7 4 6 8 6 5 5 6 6 9 9 7 5 6 8 7 8 6 6
10 12 11 11 10 10 10 9 9 9 9 11 11 13 16 11 10 10 10 10 10 9 10 10 9 8 7 5 7 7 8 7 6 6 6 8 7 6 6 6 5 7 5
11 11 11 12 10 10 10 9 9 9 9 9 10 12 19 13 12 12 12 12 12 11 9 7 9 10 10 9 6 7 8 9 6 7 7 6 6 6 4 4 5 4 4
13 13 13 13 11 10 9 11 10 10 10 10 10 9 13 13 13 13 13 12 12 12 12 11 10 8 8 8 10 9 8 8 7 7 6 6 7 6 6 6 5 5 7
12 14 14 14 13 12 10 11 11 12 12 11 10 9 14 14 14 15 14 13 13 14 13 12 13 15 11 9 8 7 9 7 6 7 11 8 8 8 8 5 6 7 10
10 12 12 11 14 14 13 10 12 11 12 12 10 11 12 15 15 14 12 12 12 12 14 15 12 16 19 16 13 14 11 12 11 9 6 7 8 10 8 8 6 8 15
11 10 9 11 9 14 14 12 12 13 12 12 12 10 12 14 15 14 13 13 13 12 11 12 14 20 17 16 19 16 11 11 11 11 9 7 7 7 6 6 13 12 17
Wind_Direction
168 154 126 137 131 127 130 116 136 116 100 154 209 167 142 192 77 114 133 49 226 216 136 100 15 354 66 113 131 123 115 109 109 100 93 92 109 117 110 112 117 119 115
167 133 134 150 120 135 133 138 132 171 186 240 241 141 164 88 70 34 43 158 93 323 118 245 166 355 94 88 88 107 113 122 127 120 115 104 98 115 110 110 101 108 116
156 141 142 138 119 135 151 164 165 189 197 256 210 110 97 98 109 99 144 259 129 150 48 354 151 171 101 98 97 109 117 119 121 123 125 120 110 111 97 105 98 92 93
166 139 135 135 143 152 142 192 180 168 187 173 109 112 109 107 83 91 49 151 102 126 85 40 41 114 116 115 109 115 124 122 125 127 118 122 122 110 115 116 119 120 133
140 125 128 142 134 152 161 197 157 166 185 120 116 94 114 76 43 28 38 87 116 136 115 74 62 60 106 106 113 116 120 121 121 119 124 119 119 116 121 110 117 123 116
123 136 150 159 155 158 192 141 154 153 110 117 116 140 80 75 27 42 25 92 103 108 101 109 109 101 96 96 107 104 114 134 126 120 120 119 115 116 122 133 133 144 137
140 146 167 138 139 165 157 135 113 119 118 133 101 102 97 87 35 26 1 104 103 108 95 100 94 104 110 106 98 89 80 80 100 129 120 125 127 145 142 132 146 152 131
160 159 137 149 146 161 125 128 130 115 120 135 141 121 100 77 27 18 353 106 101 104 125 102 108 118 122 119 120 107 104 102 115 120 128 141 146 150 143 158 163 135 120
161 145 152 142 156 142 134 124 128 158 173 166 142 125 105 106 33 24 9 91 104 115 99 110 114 115 119 120 123 114 112 99 75 95 105 113 128 149 173 143 174 143 151
158 154 150 148 136 137 128 125 152 157 128 100 118 102 107 116 52 16 1 114 114 108 79 84 92 120 119 123 132 135 134 142 134 129 108 101 154 193 222 219 166 158 154
160 147 148 137 121 120 123 139 160 117 121 117 112 117 116 120 78 30 65 125 124 121 117 111 104 118 132 132 140 148 145 145 144 147 155 148 184 209 227 236 224 191 169
162 154 138 135 138 128 131 140 122 121 118 126 128 125 120 106 105 61 58 66 25 128 125 110 110 122 125 139 144 128 135 135 153 156 170 186 180 200 203 203 178 184 216
163 145 136 155 135 137 143 157 124 129 143 142 142 132 133 121 115 89 75 58 106 107 116 108 120 124 131 141 134 148 152 155 168 167 177 183 192 182 189 119 101 111 53
159 148 150 168 149 150 153 179 154 186 172 162 151 155 142 138 145 144 127 104 85 91 106 113 134 118 118 122 140 166 177 178 178 181 182 179 171 175 169 146 154 155 109
157 157 157 166 165 154 158 185 185 63 119 179 159 163 160 154 160 152 157 140 131 134 127 135 156 130 127 150 169 183 208 215 184 180 175 173 180 166 163 157 147 165 155
160 163 169 174 184 164 161 135 36 74 103 105 94 151 158 149 137 151 177 133 145 154 152 172 182 162 161 173 187 205 214 200 189 180 150 151 156 168 177 156 167 178 172
168 167 174 196 171 194 184 171 145 68 49 79 84 93 125 149 149 156 154 149 157 156 177 192 190 194 175 181 188 205 170 189 209 185 163 163 165 179 173 182 191 186 188
173 170 184 198 179 200 185 196 173 161 168 141 26 96 134 145 150 149 147 130 156 217 220 198 197 199 208 188 189 187 186 176 200 223 180 173 181 178 177 185 190 190 194
174 178 192 181 212 182 202 192 199 170 175 177 124 91 84 92 92 125 162 176 183 201 220 237 220 198 195 199 194 195 197 192 189 193 215 195 184 183 193 195 193 199 192
176 194 188 202 201 193 196 193 204 186 176 182 169 165 152 149 170 180 196 207 204 202 210 223 247 240 199 197 201 202 200 193 188 191 198 209 191 195 209 203 197 203 197
180 188 197 211 196 206 193 207 198 198 192 187 188 171 166 177 183 188 191 206 217 220 207 210 216 238 250 211 201 201 207 210 202 194 193 199 203 209 210 200 195 190 181
187 189 190 206 227 198 199 202 202 204 205 196 190 165 166 189 190 194 198 205 211 222 234 223 211 213 217 230 225 200 207 208 203 196 205 206 199 209 209 203 206 195 165
190 194 187 197 212 229 188 196 207 207 212 208 201 152 180 192 198 201 203 205 206 212 217 229 239 238 226 211 214 221 219 216 203 193 196 191 198 197 196 206 200 194 147
212 199 199 190 201 215 218 197 200 205 210 214 205 173 181 193 200 203 206 206 208 207 214 214 219 226 232 225 222 214 212 199 196 202 195 199 197 192 199 197 183 181 141
288 212 211 198 196 203 216 207 203 205 204 214 213 204 182 192 200 211 206 205 209 210 205 208 213 216 220 226 225 222 216 201 201 196 189 191 196 198 193 200 188 130 138
306 290 225 218 208 197 205 217 208 206 213 207 214 214 204 192 202 207 207 209 212 221 216 211 212 213 213 215 223 229 211 197 201 197 188 178 187 205 203 181 136 138 144